contact:dominique.lefevre@mio.osupytheas.fr, maurice.libes@osupytheas.fr, didier.mallarino@osupytheas.fr
Project:EMSO http://www.emso-fr.org/EMSO-France
Depth: 2436.0 m
Title:EMSO Ligure Ouest : Data MII capteur CSTAR
DateTime,Latitude,Longitude,Instrument_Serial,Reference_Counts,Signal_Counts,Corrected_Signal_raw_counts,Calculated_Beam_c_inverse_meters,Internal_thermistor_counts
DateTime,Latitude,Longitude,Instrument_Serial,Reference_Counts,Signal_Counts,Corrected_Signal_raw_counts,Calculated_Beam_c_inverse_meters,Internal_thermistor_counts
2023-02-14T00:00:37,42.805,6.029,CST-1368DR,4384,4826,11696,01.156,551
2023-02-14T00:03:38,42.805,6.029,CST-1368DR,4384,4825,11694,01.157,551
2023-02-14T00:06:40,42.805,6.029,CST-1368DR,4384,4826,11697,01.156,551
2023-02-14T00:09:41,42.805,6.029,CST-1368DR,4384,4825,11695,01.157,551
2023-02-14T00:12:43,42.805,6.029,CST-1368DR,4384,4825,11695,01.157,551
2023-02-14T00:15:45,42.805,6.029,CST-1368DR,4384,4825,11694,01.157,551
2023-02-14T00:18:46,42.805,6.029,CST-1368DR,4384,4824,11692,01.158,551
2023-02-14T00:21:48,42.805,6.029,CST-1368DR,4384,4828,11701,01.154,551
2023-02-14T00:24:49,42.805,6.029,CST-1368DR,4385,4925,11933,01.076,551
2023-02-14T00:27:51,42.805,6.029,CST-1368DR,4385,4930,11945,01.072,551
2023-02-14T00:30:52,42.805,6.029,CST-1368DR,4385,4931,11948,01.071,551
2023-02-14T00:33:54,42.805,6.029,CST-1368DR,4385,4932,11950,01.070,551
2023-02-14T00:36:56,42.805,6.029,CST-1368DR,4385,4932,11950,01.070,551
2023-02-14T00:39:57,42.805,6.029,CST-1368DR,4385,4932,11950,01.070,551
2023-02-14T00:42:59,42.805,6.029,CST-1368DR,4385,4932,11950,01.070,551
2023-02-14T00:46:00,42.805,6.029,CST-1368DR,4385,4932,11950,01.070,551
2023-02-14T00:49:02,42.805,6.029,CST-1368DR,4385,4933,11953,01.069,551
2023-02-14T00:52:04,42.805,6.029,CST-1368DR,4385,4933,11954,01.069,551
2023-02-14T00:55:05,42.805,6.029,CST-1368DR,4385,4932,11951,01.070,551
2023-02-14T00:58:07,42.805,6.029,CST-1368DR,4385,4934,11955,01.069,551
2023-02-14T01:01:08,42.805,6.029,CST-1368DR,4385,4933,11953,01.069,551
2023-02-14T01:04:10,42.805,6.029,CST-1368DR,4385,4934,11956,01.068,551
2023-02-14T01:07:11,42.805,6.029,CST-1368DR,4385,4934,11955,01.069,551
2023-02-14T01:10:13,42.805,6.029,CST-1368DR,4385,4932,11951,01.070,551
2023-02-14T01:13:15,42.805,6.029,CST-1368DR,4385,4934,11956,01.068,551
2023-02-14T01:16:16,42.805,6.029,CST-1368DR,4385,4934,11956,01.068,551
2023-02-14T01:19:18,42.805,6.029,CST-1368DR,4385,4933,11953,01.069,551
2023-02-14T01:22:19,42.805,6.029,CST-1368DR,4385,4934,11956,01.068,551
2023-02-14T01:25:21,42.805,6.029,CST-1368DR,4385,4935,11957,01.068,551
2023-02-14T01:28:22,42.805,6.029,CST-1368DR,4385,4929,11943,01.073,551
2023-02-14T01:31:24,42.805,6.029,CST-1368DR,4385,4931,11949,01.071,551
2023-02-14T01:34:26,42.805,6.029,CST-1368DR,4385,4934,11956,01.068,551
2023-02-14T01:37:27,42.805,6.029,CST-1368DR,4385,4933,11954,01.069,551
2023-02-14T01:40:29,42.805,6.029,CST-1368DR,4385,4935,11959,01.067,551
2023-02-14T01:43:30,42.805,6.029,CST-1368DR,4385,4936,11960,01.067,551
2023-02-14T01:46:32,42.805,6.029,CST-1368DR,4385,4935,11957,01.068,551
2023-02-14T01:49:33,42.805,6.029,CST-1368DR,4385,4936,11961,01.067,551
2023-02-14T01:52:35,42.805,6.029,CST-1368DR,4385,4935,11959,01.067,551
2023-02-14T01:55:37,42.805,6.029,CST-1368DR,4385,4936,11959,01.067,551
2023-02-14T01:58:38,42.805,6.029,CST-1368DR,4385,4936,11960,01.067,551
2023-02-14T02:01:40,42.805,6.029,CST-1368DR,4385,4936,11960,01.067,551
2023-02-14T02:04:41,42.805,6.029,CST-1368DR,4385,4935,11957,01.068,551
2023-02-14T02:07:43,42.805,6.029,CST-1368DR,4385,4933,11952,01.070,551
2023-02-14T02:10:45,42.805,6.029,CST-1368DR,4385,4936,11959,01.067,551
2023-02-14T02:13:46,42.805,6.029,CST-1368DR,4385,4935,11958,01.068,551
2023-02-14T02:16:48,42.805,6.029,CST-1368DR,4385,4936,11959,01.067,551
2023-02-14T02:19:49,42.805,6.029,CST-1368DR,4385,4935,11957,01.068,551
2023-02-14T02:22:51,42.805,6.029,CST-1368DR,4385,4931,11949,01.071,551
2023-02-14T02:25:52,42.805,6.029,CST-1368DR,4385,4936,11961,01.067,551
2023-02-14T02:28:54,42.805,6.029,CST-1368DR,4385,4938,11964,01.066,551
2023-02-14T02:31:56,42.805,6.029,CST-1368DR,4385,4938,11964,01.066,551
2023-02-14T02:34:57,42.805,6.029,CST-1368DR,4385,4935,11958,01.068,551
2023-02-14T02:37:59,42.805,6.029,CST-1368DR,4385,4936,11961,01.067,551
2023-02-14T02:41:00,42.805,6.029,CST-1368DR,4385,4938,11965,01.065,551
2023-02-14T02:44:02,42.805,6.029,CST-1368DR,4385,4934,11956,01.068,551
2023-02-14T02:47:03,42.805,6.029,CST-1368DR,4385,4937,11962,01.066,551
2023-02-14T02:50:05,42.805,6.029,CST-1368DR,4385,4936,11961,01.067,551
2023-02-14T02:53:07,42.805,6.029,CST-1368DR,4385,4937,11962,01.066,551
2023-02-14T02:56:08,42.805,6.029,CST-1368DR,4385,4936,11960,01.067,551
2023-02-14T02:59:10,42.805,6.029,CST-1368DR,4385,4936,11961,01.067,551
2023-02-14T03:02:11,42.805,6.029,CST-1368DR,4385,4935,11957,01.068,551
2023-02-14T03:05:13,42.805,6.029,CST-1368DR,4385,4938,11965,01.065,551
2023-02-14T03:08:15,42.805,6.029,CST-1368DR,4385,4937,11962,01.066,551
2023-02-14T03:11:16,42.805,6.029,CST-1368DR,4384,4937,11964,01.066,551
2023-02-14T03:14:18,42.805,6.029,CST-1368DR,4385,4935,11958,01.068,551
2023-02-14T03:17:19,42.805,6.029,CST-1368DR,4385,4937,11962,01.066,551
2023-02-14T03:20:21,42.805,6.029,CST-1368DR,4385,4938,11966,01.065,551
2023-02-14T03:23:22,42.805,6.029,CST-1368DR,4385,4939,11967,01.065,551
2023-02-14T03:26:24,42.805,6.029,CST-1368DR,4385,4937,11962,01.066,551
2023-02-14T03:29:26,42.805,6.029,CST-1368DR,4385,4936,11961,01.067,551
2023-02-14T03:32:27,42.805,6.029,CST-1368DR,4385,4937,11962,01.066,551
2023-02-14T03:35:29,42.805,6.029,CST-1368DR,4385,4937,11962,01.066,551
2023-02-14T03:38:30,42.805,6.029,CST-1368DR,4384,4936,11964,01.066,551
2023-02-14T03:41:32,42.805,6.029,CST-1368DR,4384,4936,11962,01.066,551
2023-02-14T03:44:33,42.805,6.029,CST-1368DR,4384,4937,11965,01.065,551
2023-02-14T03:47:35,42.805,6.029,CST-1368DR,4384,4938,11967,01.065,551
2023-02-14T03:50:37,42.805,6.029,CST-1368DR,4384,4937,11965,01.065,551
2023-02-14T03:53:38,42.805,6.029,CST-1368DR,4384,4937,11964,01.066,551
2023-02-14T03:56:40,42.805,6.029,CST-1368DR,4384,4936,11962,01.066,551
2023-02-14T03:59:41,42.805,6.029,CST-1368DR,4384,4938,11967,01.065,551
2023-02-14T04:02:43,42.805,6.029,CST-1368DR,4384,4936,11964,01.066,551
2023-02-14T04:05:45,42.805,6.029,CST-1368DR,4384,4936,11964,01.066,551
2023-02-14T04:08:46,42.805,6.029,CST-1368DR,4384,4936,11963,01.066,551
2023-02-14T04:11:48,42.805,6.029,CST-1368DR,4384,4936,11962,01.066,551
2023-02-14T04:14:49,42.805,6.029,CST-1368DR,4384,4937,11965,01.065,551
2023-02-14T04:17:51,42.805,6.029,CST-1368DR,4384,4936,11963,01.066,551
2023-02-14T04:20:52,42.805,6.029,CST-1368DR,4384,4938,11967,01.065,551
2023-02-14T04:23:54,42.805,6.029,CST-1368DR,4384,4938,11967,01.065,551
2023-02-14T04:26:56,42.805,6.029,CST-1368DR,4384,4936,11964,01.066,551
2023-02-14T04:29:57,42.805,6.029,CST-1368DR,4384,4936,11964,01.066,551
2023-02-14T04:32:59,42.805,6.029,CST-1368DR,4384,4935,11960,01.067,551
2023-02-14T04:36:00,42.805,6.029,CST-1368DR,4384,4937,11964,01.066,551
2023-02-14T04:39:02,42.805,6.029,CST-1368DR,4384,4935,11961,01.067,551
2023-02-14T04:42:03,42.805,6.029,CST-1368DR,4384,4935,11961,01.067,551
2023-02-14T04:45:05,42.805,6.029,CST-1368DR,4384,4936,11963,01.066,551
2023-02-14T04:48:07,42.805,6.029,CST-1368DR,4384,4936,11964,01.066,551
2023-02-14T04:51:08,42.805,6.029,CST-1368DR,4384,4935,11959,01.067,551
2023-02-14T04:54:10,42.805,6.029,CST-1368DR,4384,4931,11951,01.070,551
2023-02-14T04:57:11,42.805,6.029,CST-1368DR,4384,4932,11953,01.069,551
2023-02-14T05:00:13,42.805,6.029,CST-1368DR,4384,4928,11944,01.072,551
2023-02-14T05:03:14,42.805,6.029,CST-1368DR,4384,4928,11943,01.073,551
2023-02-14T05:06:16,42.805,6.029,CST-1368DR,4384,4927,11940,01.074,551
2023-02-14T05:09:18,42.805,6.029,CST-1368DR,4384,4925,11937,01.075,551
2023-02-14T05:12:19,42.805,6.029,CST-1368DR,4384,4926,11938,01.074,551
2023-02-14T05:15:21,42.805,6.029,CST-1368DR,4384,4926,11939,01.074,551
2023-02-14T05:18:22,42.805,6.029,CST-1368DR,4384,4925,11936,01.075,551
2023-02-14T05:21:24,42.805,6.029,CST-1368DR,4384,4923,11932,01.076,551
2023-02-14T05:24:26,42.805,6.029,CST-1368DR,4384,4925,11937,01.075,551
2023-02-14T05:27:27,42.805,6.029,CST-1368DR,4384,4924,11934,01.076,551
2023-02-14T05:30:29,42.805,6.029,CST-1368DR,4384,4922,11930,01.077,551
2023-02-14T05:33:30,42.805,6.029,CST-1368DR,4384,4924,11934,01.076,551
2023-02-14T05:36:32,42.805,6.029,CST-1368DR,4384,4924,11934,01.076,551
2023-02-14T05:39:33,42.805,6.029,CST-1368DR,4384,4923,11932,01.076,551
2023-02-14T05:42:35,42.805,6.029,CST-1368DR,4384,4922,11930,01.077,551
2023-02-14T05:45:37,42.805,6.029,CST-1368DR,4384,4923,11932,01.076,551
2023-02-14T05:48:38,42.805,6.029,CST-1368DR,4384,4921,11927,01.078,551
2023-02-14T05:51:40,42.805,6.029,CST-1368DR,4384,4920,11924,01.079,551
2023-02-14T05:54:41,42.805,6.029,CST-1368DR,4384,4917,11917,01.081,551
2023-02-14T05:57:43,42.805,6.029,CST-1368DR,4384,4918,11920,01.080,551
2023-02-14T06:00:44,42.805,6.029,CST-1368DR,4384,4915,11911,01.083,551
2023-02-14T06:03:46,42.805,6.029,CST-1368DR,4384,4915,11912,01.083,551
2023-02-14T06:06:48,42.805,6.029,CST-1368DR,4384,4915,11913,01.083,551
2023-02-14T06:09:49,42.805,6.029,CST-1368DR,4384,4915,11911,01.083,551
2023-02-14T06:12:51,42.805,6.029,CST-1368DR,4384,4912,11906,01.085,551
2023-02-14T06:15:52,42.805,6.029,CST-1368DR,4384,4913,11907,01.085,551
2023-02-14T06:18:54,42.805,6.029,CST-1368DR,4384,4911,11903,01.086,551
2023-02-14T06:21:56,42.805,6.029,CST-1368DR,4384,4909,11897,01.088,551
2023-02-14T06:24:57,42.805,6.029,CST-1368DR,4384,4909,11898,01.088,551
2023-02-14T06:27:59,42.805,6.029,CST-1368DR,4384,4909,11897,01.088,551
2023-02-14T06:31:00,42.805,6.029,CST-1368DR,4384,4911,11902,01.086,551
2023-02-14T06:34:02,42.805,6.029,CST-1368DR,4384,4908,11895,01.089,551
2023-02-14T06:37:03,42.805,6.029,CST-1368DR,4384,4906,11891,01.090,551
2023-02-14T06:40:05,42.805,6.029,CST-1368DR,4384,4908,11895,01.089,551
2023-02-14T06:43:07,42.805,6.029,CST-1368DR,4384,4907,11893,01.089,551
2023-02-14T06:46:08,42.805,6.029,CST-1368DR,4384,4908,11894,01.089,551
2023-02-14T06:49:10,42.805,6.029,CST-1368DR,4384,4905,11887,01.091,551
2023-02-14T06:52:11,42.805,6.029,CST-1368DR,4384,4905,11889,01.091,551
2023-02-14T06:55:13,42.805,6.029,CST-1368DR,4384,4905,11888,01.091,551
2023-02-14T06:58:14,42.805,6.029,CST-1368DR,4384,4904,11886,01.092,551
2023-02-14T07:01:16,42.805,6.029,CST-1368DR,4384,4905,11889,01.091,551
2023-02-14T07:04:18,42.805,6.029,CST-1368DR,4384,4904,11886,01.092,551
2023-02-14T07:07:19,42.805,6.029,CST-1368DR,4384,4896,11867,01.098,551
2023-02-14T07:10:21,42.805,6.029,CST-1368DR,4384,4903,11883,01.093,551
2023-02-14T07:13:22,42.805,6.029,CST-1368DR,4384,4904,11886,01.092,551
2023-02-14T07:16:24,42.805,6.029,CST-1368DR,4384,4902,11880,01.094,551
2023-02-14T07:19:26,42.805,6.029,CST-1368DR,4384,4899,11873,01.096,551
2023-02-14T07:22:27,42.805,6.029,CST-1368DR,4384,4898,11870,01.097,551
2023-02-14T07:25:29,42.805,6.029,CST-1368DR,4384,4898,11872,01.096,551
2023-02-14T07:28:30,42.805,6.029,CST-1368DR,4384,4899,11873,01.096,551
2023-02-14T07:31:32,42.805,6.029,CST-1368DR,4384,4898,11872,01.096,551
2023-02-14T07:34:33,42.805,6.029,CST-1368DR,4384,4899,11874,01.096,551
2023-02-14T07:37:35,42.805,6.029,CST-1368DR,4384,4899,11872,01.096,551
2023-02-14T07:40:37,42.805,6.029,CST-1368DR,4384,4897,11869,01.097,551
2023-02-14T07:43:38,42.805,6.029,CST-1368DR,4384,4897,11869,01.097,551
2023-02-14T07:46:40,42.805,6.029,CST-1368DR,4384,4899,11872,01.096,551
2023-02-14T07:49:41,42.805,6.029,CST-1368DR,4384,4898,11872,01.096,551
2023-02-14T07:52:43,42.805,6.029,CST-1368DR,4384,4898,11872,01.096,551
2023-02-14T07:55:44,42.805,6.029,CST-1368DR,4384,4898,11870,01.097,551
2023-02-14T07:58:46,42.805,6.029,CST-1368DR,4384,4901,11877,01.095,551
2023-02-14T08:01:48,42.805,6.029,CST-1368DR,4384,4902,11880,01.094,551
2023-02-14T08:04:49,42.805,6.029,CST-1368DR,4384,4898,11872,01.096,551
2023-02-14T08:07:51,42.805,6.029,CST-1368DR,4384,4901,11878,01.094,551
2023-02-14T08:10:52,42.805,6.029,CST-1368DR,4384,4901,11878,01.094,551
2023-02-14T08:13:54,42.805,6.029,CST-1368DR,4384,4899,11873,01.096,551
2023-02-14T08:16:56,42.805,6.029,CST-1368DR,4384,4901,11878,01.094,551
2023-02-14T08:19:57,42.805,6.029,CST-1368DR,4384,4902,11881,01.093,551
2023-02-14T08:22:59,42.805,6.029,CST-1368DR,4384,4901,11879,01.094,551
2023-02-14T08:26:00,42.805,6.029,CST-1368DR,4384,4902,11881,01.093,551
2023-02-14T08:29:02,42.805,6.029,CST-1368DR,4384,4899,11874,01.096,551
2023-02-14T08:32:03,42.805,6.029,CST-1368DR,4384,4901,11879,01.094,551
2023-02-14T08:35:05,42.805,6.029,CST-1368DR,4384,4900,11876,01.095,551
2023-02-14T08:38:07,42.805,6.029,CST-1368DR,4384,4901,11878,01.094,551
2023-02-14T08:41:08,42.805,6.029,CST-1368DR,4384,4901,11878,01.094,551
2023-02-14T08:44:10,42.805,6.029,CST-1368DR,4384,4902,11881,01.093,551
2023-02-14T08:47:11,42.805,6.029,CST-1368DR,4384,4904,11886,01.092,551
2023-02-14T08:50:13,42.805,6.029,CST-1368DR,4384,4904,11885,01.092,551
2023-02-14T08:53:14,42.805,6.029,CST-1368DR,4384,4902,11880,01.094,551
2023-02-14T08:56:16,42.805,6.029,CST-1368DR,4384,4905,11887,01.091,551
2023-02-14T08:59:18,42.805,6.029,CST-1368DR,4384,4905,11888,01.091,551
2023-02-14T09:02:19,42.805,6.029,CST-1368DR,4384,4902,11881,01.093,551
2023-02-14T09:05:21,42.805,6.029,CST-1368DR,4384,4904,11885,01.092,551
2023-02-14T09:08:22,42.805,6.029,CST-1368DR,4384,4910,11900,01.087,551
2023-02-14T09:11:24,42.805,6.029,CST-1368DR,4384,4900,11876,01.095,551
2023-02-14T09:14:26,42.805,6.029,CST-1368DR,4384,4902,11881,01.093,551
2023-02-14T09:17:27,42.805,6.029,CST-1368DR,4384,4902,11880,01.094,551
2023-02-14T09:20:29,42.805,6.029,CST-1368DR,4384,4899,11874,01.096,551
2023-02-14T09:23:30,42.805,6.029,CST-1368DR,4384,4899,11873,01.096,551
2023-02-14T09:26:32,42.805,6.029,CST-1368DR,4384,4901,11879,01.094,551
2023-02-14T09:29:33,42.805,6.029,CST-1368DR,4384,4900,11875,01.095,551
2023-02-14T09:32:35,42.805,6.029,CST-1368DR,4384,4897,11868,01.098,551
2023-02-14T09:35:37,42.805,6.029,CST-1368DR,4384,4904,11885,01.092,551
2023-02-14T09:38:38,42.805,6.029,CST-1368DR,4384,4899,11872,01.096,551
2023-02-14T09:41:40,42.805,6.029,CST-1368DR,4384,4905,11889,01.091,551
2023-02-14T09:44:41,42.805,6.029,CST-1368DR,4384,4902,11881,01.093,551
2023-02-14T09:47:43,42.805,6.029,CST-1368DR,4384,4898,11872,01.096,551
2023-02-14T09:50:44,42.805,6.029,CST-1368DR,4384,4896,11866,01.098,551
2023-02-14T09:53:46,42.805,6.029,CST-1368DR,4384,4899,11873,01.096,551
2023-02-14T09:56:48,42.805,6.029,CST-1368DR,4384,4898,11870,01.097,551
2023-02-14T09:59:49,42.805,6.029,CST-1368DR,4384,4898,11870,01.097,551
2023-02-14T10:02:51,42.805,6.029,CST-1368DR,4384,4898,11872,01.096,551
2023-02-14T10:05:52,42.805,6.029,CST-1368DR,4384,4897,11869,01.097,551
2023-02-14T10:08:54,42.805,6.029,CST-1368DR,4384,4899,11873,01.096,551
2023-02-14T10:11:56,42.805,6.029,CST-1368DR,4384,4899,11874,01.096,551
2023-02-14T10:14:57,42.805,6.029,CST-1368DR,4384,4898,11871,01.097,551
2023-02-14T10:17:59,42.805,6.029,CST-1368DR,4384,4898,11870,01.097,551
2023-02-14T10:21:00,42.805,6.029,CST-1368DR,4384,4898,11870,01.097,551
2023-02-14T10:24:02,42.805,6.029,CST-1368DR,4384,4898,11870,01.097,551
2023-02-14T10:27:03,42.805,6.029,CST-1368DR,4384,4899,11873,01.096,551
2023-02-14T10:30:05,42.805,6.029,CST-1368DR,4384,4898,11872,01.096,551
2023-02-14T10:33:07,42.805,6.029,CST-1368DR,4384,4898,11872,01.096,551
2023-02-14T10:36:08,42.805,6.029,CST-1368DR,4384,4904,11886,01.092,551
2023-02-14T10:39:10,42.805,6.029,CST-1368DR,4384,4899,11874,01.096,551
2023-02-14T10:42:11,42.805,6.029,CST-1368DR,4384,4901,11878,01.094,551
2023-02-14T10:45:13,42.805,6.029,CST-1368DR,4384,4901,11877,01.095,551
2023-02-14T10:48:14,42.805,6.029,CST-1368DR,4384,4898,11871,01.097,551
2023-02-14T10:51:16,42.805,6.029,CST-1368DR,4384,4898,11870,01.097,551
2023-02-14T10:54:18,42.805,6.029,CST-1368DR,4384,4900,11875,01.095,551
2023-02-14T10:57:19,42.805,6.029,CST-1368DR,4384,4899,11874,01.096,551
2023-02-14T11:00:21,42.805,6.029,CST-1368DR,4384,4899,11874,01.096,551
2023-02-14T11:03:22,42.805,6.029,CST-1368DR,4384,4899,11873,01.096,551
2023-02-14T11:06:24,42.805,6.029,CST-1368DR,4384,4903,11882,01.093,551
2023-02-14T11:09:26,42.805,6.029,CST-1368DR,4384,4900,11876,01.095,551
2023-02-14T11:12:27,42.805,6.029,CST-1368DR,4384,4899,11873,01.096,551
2023-02-14T11:15:29,42.805,6.029,CST-1368DR,4384,4899,11874,01.096,551
2023-02-14T11:18:30,42.805,6.029,CST-1368DR,4384,4898,11872,01.096,551
2023-02-14T11:21:32,42.805,6.029,CST-1368DR,4384,4904,11884,01.092,551
2023-02-14T11:24:33,42.805,6.029,CST-1368DR,4384,4903,11882,01.093,551
2023-02-14T11:27:35,42.805,6.029,CST-1368DR,4384,4899,11872,01.096,551
2023-02-14T11:30:37,42.805,6.029,CST-1368DR,4384,4901,11879,01.094,551
2023-02-14T11:33:38,42.805,6.029,CST-1368DR,4384,4899,11873,01.096,551
2023-02-14T11:36:40,42.805,6.029,CST-1368DR,4384,4899,11873,01.096,551
2023-02-14T11:39:41,42.805,6.029,CST-1368DR,4384,4899,11873,01.096,551
2023-02-14T11:42:43,42.805,6.029,CST-1368DR,4384,4900,11875,01.095,551
2023-02-14T11:45:44,42.805,6.029,CST-1368DR,4384,4900,11876,01.095,551
2023-02-14T11:48:46,42.805,6.029,CST-1368DR,4384,4896,11865,01.099,551
2023-02-14T11:51:48,42.805,6.029,CST-1368DR,4384,4899,11872,01.096,551
2023-02-14T11:54:49,42.805,6.029,CST-1368DR,4384,4900,11875,01.095,551
2023-02-14T11:57:51,42.805,6.029,CST-1368DR,4384,4900,11875,01.095,551
2023-02-14T12:00:52,42.805,6.029,CST-1368DR,4384,4899,11872,01.096,551
2023-02-14T12:03:54,42.805,6.029,CST-1368DR,4384,4900,11875,01.095,551
2023-02-14T12:06:56,42.805,6.029,CST-1368DR,4384,4899,11873,01.096,551
2023-02-14T12:09:57,42.805,6.029,CST-1368DR,4384,4899,11873,01.096,551
2023-02-14T12:12:59,42.805,6.029,CST-1368DR,4384,4899,11872,01.096,551
2023-02-14T12:16:00,42.805,6.029,CST-1368DR,4384,4899,11873,01.096,551
2023-02-14T12:19:02,42.805,6.029,CST-1368DR,4384,4900,11876,01.095,551
2023-02-14T12:22:03,42.805,6.029,CST-1368DR,4384,4899,11873,01.096,551
2023-02-14T12:25:05,42.805,6.029,CST-1368DR,4384,4896,11866,01.098,551
2023-02-14T12:28:07,42.805,6.029,CST-1368DR,4384,4898,11870,01.097,551
2023-02-14T12:31:08,42.805,6.029,CST-1368DR,4384,4898,11872,01.096,551
2023-02-14T12:34:10,42.805,6.029,CST-1368DR,4384,4898,11871,01.097,551
2023-02-14T12:37:11,42.805,6.029,CST-1368DR,4384,4900,11875,01.095,551
2023-02-14T12:40:13,42.805,6.029,CST-1368DR,4384,4900,11876,01.095,551
2023-02-14T12:43:14,42.805,6.029,CST-1368DR,4384,4899,11873,01.096,551
2023-02-14T12:46:16,42.805,6.029,CST-1368DR,4384,4897,11869,01.097,551
2023-02-14T12:49:18,42.805,6.029,CST-1368DR,4384,4897,11868,01.098,551
2023-02-14T12:52:19,42.805,6.029,CST-1368DR,4384,4898,11870,01.097,551
2023-02-14T12:55:21,42.805,6.029,CST-1368DR,4384,4898,11871,01.097,551
2023-02-14T12:58:22,42.805,6.029,CST-1368DR,4384,4897,11869,01.097,551
2023-02-14T13:01:24,42.805,6.029,CST-1368DR,4384,4898,11870,01.097,551
2023-02-14T13:04:25,42.805,6.029,CST-1368DR,4384,4900,11875,01.095,551
2023-02-14T13:07:27,42.805,6.029,CST-1368DR,4384,4897,11869,01.097,551
2023-02-14T13:10:29,42.805,6.029,CST-1368DR,4384,4897,11869,01.097,551
2023-02-14T13:13:30,42.805,6.029,CST-1368DR,4384,4897,11869,01.097,551
2023-02-14T13:16:32,42.805,6.029,CST-1368DR,4384,4898,11870,01.097,551
2023-02-14T13:19:33,42.805,6.029,CST-1368DR,4384,4899,11873,01.096,551
2023-02-14T13:22:35,42.805,6.029,CST-1368DR,4384,4898,11872,01.096,551
2023-02-14T13:25:37,42.805,6.029,CST-1368DR,4384,4898,11870,01.097,551
2023-02-14T13:28:38,42.805,6.029,CST-1368DR,4384,4900,11876,01.095,551
2023-02-14T13:31:40,42.805,6.029,CST-1368DR,4384,4900,11875,01.095,551
2023-02-14T13:34:41,42.805,6.029,CST-1368DR,4384,4898,11872,01.096,551
2023-02-14T13:37:43,42.805,6.029,CST-1368DR,4384,4899,11873,01.096,551
2023-02-14T13:40:44,42.805,6.029,CST-1368DR,4384,4898,11870,01.097,551
2023-02-14T13:43:46,42.805,6.029,CST-1368DR,4384,4897,11868,01.098,551
2023-02-14T13:46:48,42.805,6.029,CST-1368DR,4384,4898,11870,01.097,551
2023-02-14T13:49:49,42.805,6.029,CST-1368DR,4384,4899,11873,01.096,551
2023-02-14T13:52:51,42.805,6.029,CST-1368DR,4384,4899,11873,01.096,551
2023-02-14T13:55:52,42.805,6.029,CST-1368DR,4384,4900,11876,01.095,551
2023-02-14T13:58:54,42.805,6.029,CST-1368DR,4384,4898,11872,01.096,551
2023-02-14T14:01:55,42.805,6.029,CST-1368DR,4384,4900,11876,01.095,551
2023-02-14T14:04:57,42.805,6.029,CST-1368DR,4384,4898,11870,01.097,551
2023-02-14T14:07:59,42.805,6.029,CST-1368DR,4384,4894,11862,01.100,551
2023-02-14T14:11:00,42.805,6.029,CST-1368DR,4384,4896,11867,01.098,551
2023-02-14T14:14:02,42.805,6.029,CST-1368DR,4384,4899,11874,01.096,551
2023-02-14T14:17:03,42.805,6.029,CST-1368DR,4384,4899,11874,01.096,551
2023-02-14T14:20:05,42.805,6.029,CST-1368DR,4384,4900,11876,01.095,551
2023-02-14T14:23:07,42.805,6.029,CST-1368DR,4384,4900,11875,01.095,551
2023-02-14T14:26:08,42.805,6.029,CST-1368DR,4384,4901,11878,01.094,551
2023-02-14T14:29:10,42.805,6.029,CST-1368DR,4384,4900,11875,01.095,551
2023-02-14T14:32:11,42.805,6.029,CST-1368DR,4384,4900,11876,01.095,551
2023-02-14T14:35:13,42.805,6.029,CST-1368DR,4384,4900,11876,01.095,551
2023-02-14T14:38:14,42.805,6.029,CST-1368DR,4384,4900,11876,01.095,551
2023-02-14T14:41:16,42.805,6.029,CST-1368DR,4384,4895,11864,01.099,551
2023-02-14T14:44:18,42.805,6.029,CST-1368DR,4384,4901,11877,01.095,551
2023-02-14T14:47:19,42.805,6.029,CST-1368DR,4384,4900,11876,01.095,551
2023-02-14T14:50:21,42.805,6.029,CST-1368DR,4384,4899,11874,01.096,551
2023-02-14T14:53:22,42.805,6.029,CST-1368DR,4384,4900,11876,01.095,551
2023-02-14T14:56:24,42.805,6.029,CST-1368DR,4384,4899,11874,01.096,551
2023-02-14T14:59:25,42.805,6.029,CST-1368DR,4384,4899,11874,01.096,551
2023-02-14T15:02:27,42.805,6.029,CST-1368DR,4384,4899,11874,01.096,551
2023-02-14T15:05:29,42.805,6.029,CST-1368DR,4384,4897,11868,01.098,551
2023-02-14T15:08:30,42.805,6.029,CST-1368DR,4384,4899,11873,01.096,551
2023-02-14T15:11:32,42.805,6.029,CST-1368DR,4384,4900,11876,01.095,551
2023-02-14T15:14:33,42.805,6.029,CST-1368DR,4384,4898,11871,01.097,551
2023-02-14T15:17:35,42.805,6.029,CST-1368DR,4384,4899,11874,01.096,551
2023-02-14T15:20:37,42.805,6.029,CST-1368DR,4384,4899,11873,01.096,551
2023-02-14T15:23:38,42.805,6.029,CST-1368DR,4384,4898,11871,01.097,551
2023-02-14T15:26:40,42.805,6.029,CST-1368DR,4384,4897,11869,01.097,551
2023-02-14T15:29:41,42.805,6.029,CST-1368DR,4384,4900,11875,01.095,551
2023-02-14T15:32:43,42.805,6.029,CST-1368DR,4384,4900,11875,01.095,551
2023-02-14T15:35:44,42.805,6.029,CST-1368DR,4384,4898,11872,01.096,551
2023-02-14T15:38:46,42.805,6.029,CST-1368DR,4384,4899,11873,01.096,551
2023-02-14T15:41:48,42.805,6.029,CST-1368DR,4384,4898,11870,01.097,551
2023-02-14T15:44:49,42.805,6.029,CST-1368DR,4384,4899,11873,01.096,551
2023-02-14T15:47:51,42.805,6.029,CST-1368DR,4384,4902,11880,01.094,551
2023-02-14T15:50:52,42.805,6.029,CST-1368DR,4384,4900,11875,01.095,551
2023-02-14T15:53:54,42.805,6.029,CST-1368DR,4384,4899,11873,01.096,551
2023-02-14T15:56:55,42.805,6.029,CST-1368DR,4384,4901,11879,01.094,551
2023-02-14T15:59:57,42.805,6.029,CST-1368DR,4384,4901,11879,01.094,551
2023-02-14T16:02:59,42.805,6.029,CST-1368DR,4384,4878,11823,01.113,551
2023-02-14T16:06:00,42.805,6.029,CST-1368DR,4384,4904,11884,01.092,551
2023-02-14T16:09:02,42.805,6.029,CST-1368DR,4384,4904,11885,01.092,551
2023-02-14T16:12:03,42.805,6.029,CST-1368DR,4384,4903,11883,01.093,551
2023-02-14T16:15:05,42.805,6.029,CST-1368DR,4384,4903,11883,01.093,551
2023-02-14T16:18:07,42.805,6.029,CST-1368DR,4384,4901,11879,01.094,551
2023-02-14T16:21:08,42.805,6.029,CST-1368DR,4384,4902,11880,01.094,551
2023-02-14T16:24:10,42.805,6.029,CST-1368DR,4384,4901,11877,01.095,551
2023-02-14T16:27:11,42.805,6.029,CST-1368DR,4384,4902,11880,01.094,551
2023-02-14T16:30:13,42.805,6.029,CST-1368DR,4384,4902,11880,01.094,551
2023-02-14T16:33:14,42.805,6.029,CST-1368DR,4384,4901,11877,01.095,551
2023-02-14T16:36:16,42.805,6.029,CST-1368DR,4384,4901,11879,01.094,551